Weather History for Peoria, IL

Change the Weather History Date:

Tuesday, May 27, 2014

  Actual Average Record
Temperature  
Mean Temperature 76 °F 66 °F  
Max Temperature 85 °F 77 °F 94 °F (1911)
Min Temperature 67 °F 55 °F 35 °F (1992)
Degree Days  
Heating Degree Days 0 3  
Month to date heating degree days 119 139  
Since 1 July heating degree days 6586 5804  
Cooling Degree Days 11 3  
Month to date cooling degree days 108 51  
Year to date cooling degree days 114 65  
Growing Degree Days 26 (Base 50)    
Moisture  
Dew Point 63 °F    
Average Humidity 64    
Maximum Humidity 81    
Minimum Humidity 47    
Precipitation  
Precipitation 0.00 in 0.13 in 1.66 in (1996)
Month to date precipitation 1.31 3.82  
Year to date precipitation 11.84 13.82  
Snow  
Snow 0.00 in 0.00 in 0.00 in ()
Month to date snowfall 0.0 0.0  
Since 1 July snowfall 57.6 24.6  
Snow Depth 0.00 in    
Sea Level Pressure  
Sea Level Pressure 29.94 in    
Wind  
Wind Speed 6 mph (SW)    
Max Wind Speed 13 mph    
Max Gust Speed 17 mph    
Visibility 10 miles    
Events      
T = Trace of Precipitation, MM = Missing Value Source: NWS Daily Summary

Daily Weather History Graph

Daily Weather History Graph

Search for Another Location

Airport:

Trip Planner

Search our weather history database for the weather conditions in past years. The results will help you decide how hot, cold, wet, or windy it might be!

Date:

Astronomy

May. 27, 2014 Rise Set
Actual Time 5:32 AM CDT 8:19 PM CDT
Civil Twilight 5:00 AM CDT 8:52 PM CDT
Nautical Twilight 4:19 AM CDT 9:32 PM CDT
Astronomical Twilight 3:33 AM CDT 10:19 PM CDT
Moon 4:55 AM CDT (5/27) 7:21 PM CDT (5/27)
Length of Visible Light 15h 51m
Length of Day
14h 47m
Waning Crescent, 1% of the Moon is Illuminated
May 27
Waning Crescent
May 28
New
Jun 5
First Quarter
Jun 12
Full
Jun 19
Last Quarter

Hourly Weather History & Observations

Time (CDT) Temp. Heat Index Dew Point Humidity Pressure Visibility Wind Dir Wind Speed Gust Speed Precip Events Conditions
12:54 AM 71.6 °F - 62.6 °F 73% 29.98 in 10.0 mi SW 9.2 mph - N/A   Mostly Cloudy
1:54 AM 70.0 °F - 62.1 °F 76% 29.96 in 10.0 mi SW 6.9 mph - N/A   Mostly Cloudy
2:54 AM 69.1 °F - 62.1 °F 78% 29.94 in 10.0 mi SW 6.9 mph - N/A   Clear
3:54 AM 69.1 °F - 62.1 °F 78% 29.95 in 10.0 mi SW 4.6 mph - N/A   Mostly Cloudy
4:54 AM 69.1 °F - 62.1 °F 78% 29.94 in 10.0 mi South 8.1 mph - N/A   Overcast
5:54 AM 68.0 °F - 62.1 °F 81% 29.95 in 10.0 mi SSW 5.8 mph - N/A   Partly Cloudy
6:54 AM 69.1 °F - 62.1 °F 78% 29.98 in 10.0 mi SW 3.5 mph - N/A   Clear
7:54 AM 70.0 °F - 63.0 °F 78% 29.98 in 10.0 mi SSW 8.1 mph - N/A   Clear
8:54 AM 73.0 °F - 64.9 °F 76% 29.98 in 10.0 mi SSW 8.1 mph - N/A   Clear
9:54 AM 75.9 °F - 66.0 °F 71% 29.98 in 10.0 mi WSW 9.2 mph - N/A   Partly Cloudy
10:54 AM 78.1 °F - 66.0 °F 66% 29.97 in 10.0 mi WSW 6.9 mph - N/A   Clear
11:54 AM 80.1 °F 82.3 °F 66.9 °F 64% 29.96 in 10.0 mi WSW 8.1 mph - N/A   Partly Cloudy
12:54 PM 81.0 °F 83.3 °F 66.9 °F 62% 29.95 in 10.0 mi SW 6.9 mph - N/A   Partly Cloudy
1:54 PM 80.1 °F 81.9 °F 64.9 °F 60% 29.95 in 10.0 mi SW 8.1 mph - N/A   Clear
2:54 PM 81.0 °F 83.0 °F 66.0 °F 60% 29.93 in 10.0 mi SW 8.1 mph - N/A   Clear
3:54 PM 82.9 °F 84.6 °F 64.9 °F 54% 29.91 in 10.0 mi WSW 6.9 mph - N/A   Clear
4:54 PM 84.9 °F 86.1 °F 64.0 °F 49% 29.89 in 10.0 mi West 9.2 mph - N/A   Clear
5:54 PM 82.9 °F 84.4 °F 64.0 °F 53% 29.89 in 10.0 mi SSW 6.9 mph - N/A   Clear
6:54 PM 82.0 °F 82.7 °F 61.0 °F 49% 29.88 in 10.0 mi SW 9.2 mph - N/A   Clear
7:54 PM 79.0 °F - 61.0 °F 54% 29.89 in 10.0 mi SW 6.9 mph - N/A   Clear
8:54 PM 75.9 °F - 60.1 °F 58% 29.90 in 10.0 mi SSW 5.8 mph - N/A   Clear
9:54 PM 75.0 °F - 61.0 °F 62% 29.91 in 10.0 mi SW 4.6 mph - N/A   Partly Cloudy
10:54 PM 72.0 °F - 62.1 °F 71% 29.91 in 10.0 mi Calm Calm - N/A   Clear
11:54 PM 70.0 °F - 62.1 °F 76% 29.92 in 10.0 mi Calm Calm - N/A   Clear